EW6576 Weather Reports


Display with metric or nautical units.
time (UTC)temp
F
wind
direction
speed
MPH
gust
MPH
rain 1hr
in
rain 24hr
in
rain mn
in
humidity
%
barometer
mb
20260504023522 60 121 0.0 1.0 0.00 0.00 0.00 73 1014.1
20260504023018 60 125 1.0 2.0 0.00 0.00 0.00 73 1014.1
20260504022514 60 219 1.0 2.0 0.00 0.00 0.00 73 1014.1
20260504022011 60 120 3.0 5.0 0.00 0.00 0.00 72 1014.3
20260504021509 61 182 4.0 5.0 0.00 0.00 0.00 72 1014.3
20260504021006 61 164 1.0 1.0 0.00 0.00 0.00 71 1014.1
20260504020502 61 104 1.0 1.0 0.00 0.00 0.00 71 1014.0
20260504015959 61 182 3.0 5.0 0.00 0.00 0.00 71 1014.1
20260504015455 61 131 3.0 3.0 0.00 0.00 0.00 71 1014.0
20260504014951 61 148 3.0 3.0 0.00 0.00 0.00 71 1014.0
20260504014447 61 183 2.0 2.0 0.00 0.00 0.00 72 1013.7
20260504013944 61 167 2.0 2.0 0.00 0.00 0.00 72 1013.7
20260504013443 61 152 4.0 5.0 0.00 0.00 0.00 71 1014.2
20260504012938 61 138 3.0 3.0 0.00 0.00 0.00 70 1013.7
20260504012437 61 62 4.0 5.0 0.00 0.00 0.00 70 1013.5
20260504011934 61 204 1.0 2.0 0.00 0.00 0.00 70 1013.7
20260504011430 61 164 3.0 7.0 0.00 0.00 0.00 69 1013.7
20260504010926 61 219 3.0 5.0 0.00 0.00 0.00 68 1013.5
20260504010422 62 108 6.0 8.0 0.00 0.00 0.00 67 1013.4
20260504005919 62 65 4.0 7.0 0.00 0.00 0.00 69 1013.6
20260504005415 62 90 2.0 2.0 0.00 0.00 0.00 69 1013.2
20260504004913 62 93 5.0 6.0 0.00 0.00 0.00 68 1013.2
20260504004411 62 159 4.0 6.0 0.00 0.00 0.00 68 1013.1
20260504003908 62 165 3.0 3.0 0.00 0.00 0.00 67 1013.5
20260504003404 63 214 2.0 2.0 0.00 0.00 0.00 66 1013.2
20260504002900 63 156 2.0 3.0 0.00 0.00 0.00 65 1013.1
20260504002357 65 149 4.0 6.0 0.00 0.00 0.00 63 1013.0
20260504001855 65 34 5.0 6.0 0.00 0.00 0.00 63 1012.8
20260504001352 65 95 4.0 7.0 0.00 0.00 0.00 62 1013.0
20260504000849 66 149 5.0 6.0 0.00 0.00 0.00 59 1012.9
20260504000346 67 242 3.0 3.0 0.00 0.00 0.00 59 1012.9
20260503235843 66 133 4.0 6.0 0.00 0.00 0.00 59 1012.6
20260503235341 66 114 3.0 3.0 0.00 0.00 0.00 61 1012.8
20260503234838 67 185 3.0 5.0 0.00 0.00 0.00 59 1012.7
20260503234336 68 156 4.0 5.0 0.00 0.00 0.00 58 1012.7
20260503233833 68 209 3.0 7.0 0.00 0.00 0.00 57 1012.6
20260503233329 68 76 3.0 3.0 0.00 0.00 0.00 59 1012.5
20260503232826 69 159 3.0 6.0 0.00 0.00 0.00 57 1012.7
20260503232323 68 164 2.0 2.0 0.00 0.00 0.00 58 1012.6
20260503231821 67 112 7.0 8.0 0.00 0.00 0.00 59 1012.6
20260503231318 68 103 5.0 6.0 0.00 0.00 0.00 60 1012.8
20260503230814 67 158 5.0 7.0 0.00 0.00 0.00 59 1012.9
20260503230311 67 119 5.0 8.0 0.00 0.00 0.00 60 1012.8
20260503225809 67 132 4.0 5.0 0.00 0.00 0.00 60 1012.8
20260503225304 69 57 6.0 8.0 0.00 0.00 0.00 58 1012.8
20260503224801 69 185 3.0 3.0 0.00 0.00 0.00 57 1013.0
20260503224258 68 52 1.0 1.0 0.00 0.00 0.00 58 1012.7
20260503223756 67 126 3.0 5.0 0.00 0.00 0.00 59 1012.9
20260503223253 68 176 1.0 2.0 0.00 0.00 0.00 59 1013.0
20260503222749 68 170 1.0 2.0 0.00 0.00 0.00 59 1012.9
20260503222247 68 103 2.0 2.0 0.00 0.00 0.00 60 1013.1
20260503221746 68 161 3.0 3.0 0.00 0.00 0.00 61 1013.3
20260503221243 67 147 5.0 6.0 0.00 0.00 0.00 62 1013.2
20260503220739 69 80 4.0 5.0 0.00 0.00 0.00 60 1013.2
20260503220236 67 130 3.0 5.0 0.00 0.00 0.00 63 1013.5
20260503215733 66 116 1.0 2.0 0.00 0.00 0.00 65 1013.5
20260503215230 66 183 3.0 3.0 0.00 0.00 0.00 65 1013.5
20260503214728 66 103 3.0 3.0 0.00 0.00 0.00 65 1013.4
20260503214225 67 187 0.0 1.0 0.00 0.00 0.00 65 1013.7
20260503213723 68 185 4.0 7.0 0.00 0.00 0.00 63 1013.6
20260503213220 66 250 3.0 5.0 0.00 0.00 0.00 66 1013.4
20260503212716 67 171 2.0 2.0 0.00 0.00 0.00 65 1013.7
20260503212214 67 132 1.0 1.0 0.00 0.00 0.00 66 1013.6
20260503211712 65 142 5.0 6.0 0.00 0.00 0.00 68 1013.6
20260503211208 66 161 3.0 3.0 0.00 0.00 0.00 67 1013.7
20260503210703 66 187 2.0 3.0 0.00 0.00 0.00 67 1013.8
20260503210201 66 145 2.0 2.0 0.00 0.00 0.00 66 1013.8
20260503205656 65 203 3.0 3.0 0.00 0.00 0.00 67 1013.6
20260503205152 65 165 3.0 3.0 0.00 0.00 0.00 68 1013.8
20260503204649 64 310 2.0 3.0 0.00 0.00 0.00 69 1013.6
20260503204147 64 134 2.0 3.0 0.00 0.00 0.00 69 1013.9
20260503203643 65 95 2.0 3.0 0.00 0.00 0.00 68 1013.9
20260503203141 64 74 2.0 3.0 0.00 0.00 0.00 70 1013.9
20260503202638 65 191 5.0 7.0 0.00 0.00 0.00 68 1013.9
20260503202137 64 193 3.0 3.0 0.00 0.00 0.00 69 1014.0
20260503201634 65 156 3.0 5.0 0.00 0.00 0.00 68 1013.9
20260503201131 65 170 1.0 1.0 0.00 0.00 0.00 67 1014.0
20260503200627 65 228 3.0 5.0 0.00 0.00 0.00 68 1014.0
20260503200124 66 143 4.0 5.0 0.00 0.00 0.00 67 1014.0
20260503195621 67 93 7.0 8.0 0.00 0.00 0.00 66 1014.2
20260503195118 67 172 2.0 2.0 0.00 0.00 0.00 67 1014.0
20260503194615 67 205 3.0 5.0 0.00 0.00 0.00 67 1014.0
20260503194110 67 89 4.0 6.0 0.00 0.00 0.00 66 1014.1
20260503193607 66 165 4.0 5.0 0.00 0.00 0.00 68 1014.1
20260503193102 66 197 4.0 6.0 0.00 0.00 0.00 69 1014.1
20260503192558 66 167 4.0 5.0 0.00 0.00 0.00 69 1014.2
20260503192054 66 192 3.0 5.0 0.00 0.00 0.00 68 1014.1
20260503191551 65 51 3.0 3.0 0.00 0.00 0.00 69 1014.1
20260503191048 64 172 3.0 3.0 0.00 0.00 0.00 70 1014.1
20260503190545 64 114 4.0 5.0 0.00 0.00 0.00 72 1014.4
20260503190042 63 120 4.0 6.0 0.00 0.00 0.00 73 1014.3
20260503185533 63 165 3.0 3.0 0.00 0.00 0.00 74 1014.4
20260503185032 63 121 4.0 6.0 0.00 0.00 0.00 75 1014.4
20260503184529 63 116 2.0 3.0 0.00 0.00 0.00 76 1014.4
20260503184026 63 139 3.0 3.0 0.00 0.00 0.00 75 1014.3
20260503183522 63 136 2.0 2.0 0.00 0.00 0.00 75 1014.4
20260503183019 64 103 4.0 7.0 0.00 0.00 0.00 75 1014.3
20260503182518 64 155 2.0 3.0 0.00 0.00 0.00 76 1014.3
20260503182015 64 150 3.0 3.0 0.00 0.00 0.00 76 1014.5
20260503181512 64 153 1.0 2.0 0.00 0.00 0.00 76 1014.3
20260503181008 65 151 3.0 5.0 0.00 0.00 0.00 74 1014.3
20260503180506 66 131 0.0 0.0 0.00 0.00 0.00 72 1014.5
20260503180003 65 139 0.0 1.0 0.00 0.00 0.00 73 1014.3
20260503175501 64 122 1.0 1.0 0.00 0.00 0.00 74 1014.2
20260503174957 65 114 2.0 2.0 0.00 0.00 0.00 73 1014.4
20260503174455 65 139 1.0 1.0 0.00 0.00 0.00 74 1014.4
20260503173950 64 109 1.0 1.0 0.00 0.00 0.00 74 1014.2
20260503173446 65 124 3.0 3.0 0.00 0.00 0.00 73 1014.2
20260503172943 65 133 0.0 1.0 0.00 0.00 0.00 73 1014.3
20260503172440 64 150 2.0 2.0 0.00 0.00 0.00 73 1014.4
20260503171937 64 137 1.0 1.0 0.00 0.00 0.00 74 1014.4
20260503171433 64 148 3.0 3.0 0.00 0.00 0.00 74 1014.1
20260503170931 64 70 1.0 1.0 0.00 0.00 0.00 75 1014.3
20260503170427 64 29 3.0 3.0 0.00 0.00 0.00 74 1014.3
20260503150819 60 119 0.0 0.0 0.00 0.00 0.00 89 1013.9
20260503150315 59 114 0.0 0.0 0.00 0.00 0.00 89 1014.2
20260503140240 58 118 1.0 1.0 0.00 0.00 0.00 92 1013.8
20260503131209 57 122 1.0 2.0 0.00 0.00 0.00 95 1013.4
20260503130707 57 136 2.0 3.0 0.00 0.00 0.00 95 1013.2
20260503130204 57 130 2.0 2.0 0.00 0.00 0.00 95 1013.0
20260503120130 57 123 1.0 2.0 0.00 0.00 0.00 95 1012.6
20260503110557 58 122 1.0 1.0 0.00 0.00 0.00 97 1012.7
20260503090444 59 129 2.0 2.0 0.00 0.00 0.00 95 1012.8
20260503081410 60 108 2.0 2.0 0.00 0.00 0.00 94 1013.2
20260503080908 60 99 0.0 0.0 0.00 0.00 0.00 94 1013.2
20260503080404 59 104 1.0 1.0 0.00 0.00 0.00 94 1013.2
20260503072840 59 99 1.0 1.0 0.00 0.00 0.00 94 1013.9
20260503072337 59 113 3.0 3.0 0.00 0.00 0.00 94 1013.9
20260503071834 59 80 1.0 1.0 0.00 0.00 0.00 94 1013.9
20260503071331 59 89 1.0 1.0 0.00 0.00 0.00 94 1013.7
20260503070827 59 123 1.0 1.0 0.00 0.00 0.00 94 1013.7
20260503070326 59 123 1.0 1.0 0.00 0.00 0.00 94 1014.0
20260503060250 59 129 1.0 1.0 0.00 0.00 0.00 93 1013.4
20260503054737 59 150 0.0 0.0 0.00 0.00 0.00 93 1013.5
20260503054234 59 147 1.0 1.0 0.00 0.00 0.00 93 1013.5
20260503053732 59 99 0.0 1.0 0.00 0.00 0.00 93 1013.5
20260503053231 59 128 1.0 1.0 0.00 0.00 0.00 93 1013.3
20260503052727 59 103 2.0 2.0 0.00 0.00 0.00 93 1013.2
20260503052223 59 134 3.0 5.0 0.00 0.00 0.00 93 1013.3
20260503051718 59 102 2.0 2.0 0.00 0.00 0.00 93 1013.3
20260503051217 59 137 1.0 1.0 0.00 0.00 0.00 93 1013.1
20260503050713 59 116 2.0 2.0 0.00 0.00 0.00 93 1012.9
20260503050209 59 120 2.0 2.0 0.00 0.00 0.00 93 1013.0
20260503045707 59 129 1.0 1.0 0.00 0.00 0.00 93 1012.7
20260503045204 58 144 0.0 0.0 0.00 0.00 0.00 93 1012.8
20260503044700 58 136 1.0 1.0 0.00 0.00 0.00 93 1012.7
20260503044158 58 140 1.0 1.0 0.00 0.00 0.00 93 1012.5
20260503043655 58 136 2.0 2.0 0.00 0.00 0.00 93 1012.6
20260503043152 58 150 1.0 1.0 0.00 0.00 0.00 93 1012.6
20260503042648 58 129 1.0 2.0 0.00 0.00 0.00 93 1012.4
20260503042145 58 94 3.0 5.0 0.00 0.00 0.00 93 1012.3
20260503041641 58 134 0.0 0.0 0.00 0.00 0.00 93 1012.0
20260503041139 59 145 0.0 0.0 0.00 0.00 0.00 93 1012.1
20260503040636 59 135 1.0 1.0 0.00 0.00 0.00 92 1012.0
20260503040133 59 148 0.0 0.0 0.00 0.00 0.00 92 1011.8
20260503035629 59 139 0.0 0.0 0.00 0.00 0.00 92 1011.8
20260503035127 59 107 3.0 3.0 0.00 0.00 0.00 92 1011.7
20260503034625 59 140 1.0 2.0 0.00 0.00 0.00 92 1011.8
20260503034122 59 150 1.0 1.0 0.00 0.00 0.00 92 1012.1
20260503033619 59 160 1.0 2.0 0.00 0.00 0.00 92 1011.7
20260503033117 59 135 2.0 2.0 0.00 0.00 0.00 92 1011.7
20260503032615 59 147 1.0 2.0 0.00 0.00 0.00 92 1011.6
20260503032113 59 120 2.0 2.0 0.00 0.00 0.00 91 1011.7
20260503031610 59 123 2.0 2.0 0.00 0.00 0.00 91 1011.6
20260503031108 59 160 1.0 1.0 0.00 0.00 0.00 91 1011.4
20260503030603 60 119 1.0 1.0 0.00 0.00 0.00 91 1011.6
20260503030100 60 136 2.0 2.0 0.00 0.00 0.00 91 1011.5
20260503025557 60 143 2.0 2.0 0.00 0.00 0.00 90 1011.3
20260503025055 60 101 5.0 5.0 0.00 0.00 0.00 90 1011.6
20260503024550 60 180 2.0 2.0 0.00 0.00 0.00 90 1011.4
20260503024048 60 169 2.0 3.0 0.00 0.00 0.00 90 1011.3
20260503023545 60 126 2.0 3.0 0.00 0.00 0.00 89 1011.2